TimeCDT,TemperatureF,Dew PointF,Humidity,Sea Level PressureIn,VisibilityMPH,Wind Direction,Wind SpeedMPH,Gust SpeedMPH,PrecipitationIn,Events,Conditions,WindDirDegrees,DateUTC
12:56 AM,26.1,18.0,71,30.35,-9999.0,North,16.1,-,N/A,,Unknown,360,2013-04-10 05:56:00
1:56 AM,25.0,18.0,75,30.33,-9999.0,North,18.4,-,N/A,,Unknown,360,2013-04-10 06:56:00
2:56 AM,25.0,18.0,75,30.28,-9999.0,North,17.3,-,N/A,,Unknown,10,2013-04-10 07:56:00
3:56 AM,25.0,18.0,75,30.22,-9999.0,NE,16.1,-,N/A,,Unknown,50,2013-04-10 08:56:00
4:56 AM,24.1,18.0,77,30.22,-9999.0,NE,16.1,-,N/A,,Unknown,40,2013-04-10 09:56:00
5:56 AM,25.0,18.0,75,30.22,-9999.0,NE,10.4,-,N/A,,Unknown,50,2013-04-10 10:56:00
6:56 AM,26.1,19.0,75,30.26,-9999.0,North,11.5,-,N/A,,Unknown,360,2013-04-10 11:56:00
7:56 AM,26.1,19.0,75,30.26,-9999.0,North,16.1,-,N/A,,Unknown,360,2013-04-10 12:56:00
8:56 AM,26.1,19.0,75,30.26,-9999.0,North,16.1,-,N/A,,Unknown,10,2013-04-10 13:56:00
9:56 AM,28.0,19.0,69,30.24,-9999.0,North,15.0,-,N/A,,Unknown,10,2013-04-10 14:56:00
10:56 AM,30.0,19.0,64,30.23,-9999.0,NE,18.4,-,N/A,,Unknown,40,2013-04-10 15:56:00
11:56 AM,33.1,19.9,59,30.22,-9999.0,NE,20.7,-,N/A,,Unknown,40,2013-04-10 16:56:00
12:56 PM,36.0,23.0,59,30.19,-9999.0,NNE,19.6,-,N/A,,Unknown,30,2013-04-10 17:56:00
1:56 PM,35.1,23.0,61,30.17,-9999.0,NE,17.3,-,N/A,,Unknown,50,2013-04-10 18:56:00
2:56 PM,34.0,23.0,64,30.20,-9999.0,NNE,9.2,-,N/A,,Unknown,30,2013-04-10 19:56:00
3:56 PM,33.1,25.0,72,30.16,-9999.0,North,16.1,-,N/A,,Unknown,10,2013-04-10 20:56:00
4:56 PM,32.0,25.0,75,30.13,-9999.0,NNE,18.4,-,N/A,,Unknown,30,2013-04-10 21:56:00
5:56 PM,32.0,25.0,75,30.11,-9999.0,NNE,16.1,-,N/A,,Unknown,30,2013-04-10 22:56:00
6:56 PM,32.0,26.1,79,30.08,-9999.0,NNE,15.0,-,N/A,,Unknown,20,2013-04-10 23:56:00
7:56 PM,32.0,26.1,79,30.04,-9999.0,NNE,15.0,-,N/A,,Unknown,30,2013-04-11 00:56:00
8:56 PM,32.0,26.1,79,30.04,-9999.0,NNE,15.0,-,N/A,,Unknown,20,2013-04-11 01:56:00
9:56 PM,32.0,27.0,82,30.06,-9999.0,NNE,11.5,-,0.01,,Unknown,20,2013-04-11 02:56:00
10:56 PM,30.9,27.0,85,30.05,-9999.0,East,4.6,-,N/A,,Unknown,90,2013-04-11 03:56:00
11:56 PM,30.9,27.0,85,30.03,-9999.0,East,10.4,-,N/A,,Unknown,100,2013-04-11 04:56:00